Rhinelander, WI

5:11 PM CDT on August 23, 2017 (GMT -0500)
Rhinelander-Oneida County

Weather History for KRHI - December, 2013

Change the Weather History Date:

Saturday, December 21, 2013

  Actual Average Record
Temperature  
Mean Temperature 19 °F 15 °F  
Max Temperature 22 °F 24 °F 49 °F (1967)
Min Temperature 16 °F 6 °F -26 °F (1989)
Degree Days  
Heating Degree Days 46 50  
Month to date heating degree days 1198 982  
Since 1 July heating degree days 3425 3116  
Cooling Degree Days 0 0  
Month to date cooling degree days 0 0  
Year to date cooling degree days 281 261  
Moisture  
Dew Point 16 °F    
Average Humidity 85    
Maximum Humidity 92    
Minimum Humidity 77    
Precipitation  
Precipitation T in 0.05 in 0.46 in (1984)
Month to date precipitation 1.32 1.02  
Year to date precipitation 36.53 30.98  
Snow  
Snow T in - 7.30 in (2010)
Month to date snowfall 17.0  
Since 1 July snowfall 26.8  
Snow Depth 10.00 in    
Sea Level Pressure  
Sea Level Pressure 29.93 in    
Wind  
Wind Speed 3 mph (NE)    
Max Wind Speed 9 mph    
Max Gust Speed 13 mph    
Visibility 10 miles    
Events      
T = Trace of Precipitation, MM = Missing Value Source: NWS Daily Summary

Daily Weather History Graph

Daily Weather History Graph

Search for Another Location

Airport or City:

Trip Planner

Search our weather history database for the weather conditions in past years. The results will help you decide how hot, cold, wet, or windy it might be!

Date:

Astronomy

Dec. 21, 2013 Rise Set
Actual Time 7:35 AM CST 4:16 PM CST
Civil Twilight 7:01 AM CST 4:51 PM CST
Nautical Twilight 6:23 AM CST 5:28 PM CST
Astronomical Twilight 5:47 AM CST 6:05 PM CST
Moon 8:44 PM CST (12/21) 9:51 AM CST (12/21)
Length of Visible Light 9h 50m
Length of Day
8h 41m
Waning Gibbous, 84% of the Moon is Illuminated
Dec 21
Waning Gibbous
Dec 25
Last Quarter
Jan 1
New
Jan 7
First Quarter
Jan 15
Full

Hourly Weather History & Observations

Time (CST) Temp. Windchill Dew Point Humidity Pressure Visibility Wind Dir Wind Speed Gust Speed Precip Events Conditions
12:53 AM 17.1 °F - 15.1 °F 92% 29.88 in 10.0 mi Calm Calm - N/A   Overcast
1:53 AM 17.1 °F - 15.1 °F 92% 29.87 in 10.0 mi Calm Calm - N/A   Overcast
2:53 AM 17.1 °F - 15.1 °F 92% 29.90 in 10.0 mi Calm Calm - N/A   Overcast
3:53 AM 17.1 °F - 15.1 °F 92% 29.90 in 10.0 mi Calm Calm - N/A   Overcast
4:53 AM 16.0 °F - 14.0 °F 92% 29.91 in 10.0 mi Calm Calm - N/A   Overcast
5:53 AM 17.1 °F - 15.1 °F 92% 29.89 in 10.0 mi Calm Calm - N/A   Overcast
6:06 AM 17.1 °F - 15.1 °F 92% 29.81 in 10.0 mi Calm Calm - N/A   Overcast
6:53 AM 17.1 °F - 15.1 °F 92% 29.91 in 10.0 mi Calm Calm - N/A   Overcast
7:11 AM 17.1 °F - 15.1 °F 92% 29.82 in 10.0 mi Calm Calm - N/A   Overcast
7:27 AM 17.1 °F - 14.0 °F 88% 29.84 in 10.0 mi Calm Calm - N/A   Overcast
7:53 AM 17.1 °F - 15.1 °F 92% 29.93 in 10.0 mi Calm Calm - N/A   Overcast
8:53 AM 18.0 °F - 15.1 °F 88% 29.94 in 10.0 mi Calm Calm - N/A   Overcast
9:53 AM 19.0 °F - 15.1 °F 85% 29.99 in 10.0 mi Calm Calm - N/A   Overcast
10:53 AM 19.9 °F 13.4 °F 16.0 °F 85% 29.96 in 10.0 mi NNE 4.6 mph - N/A   Overcast
11:53 AM 19.9 °F 14.9 °F 16.0 °F 85% 29.95 in 10.0 mi NE 3.5 mph - N/A   Overcast
12:53 PM 21.0 °F 13.4 °F 17.1 °F 85% 29.96 in 10.0 mi East 5.8 mph - N/A   Overcast
1:53 PM 21.9 °F - 17.1 °F 82% 29.97 in 10.0 mi Calm Calm - N/A   Overcast
2:53 PM 21.9 °F 15.7 °F 17.1 °F 82% 29.97 in 10.0 mi North 4.6 mph - N/A   Overcast
3:53 PM 21.9 °F 17.2 °F 17.1 °F 82% 29.98 in 10.0 mi NE 3.5 mph - N/A   Overcast
4:53 PM 21.0 °F - 18.0 °F 88% 29.99 in 10.0 mi Calm Calm - N/A   Overcast
5:53 PM 21.0 °F 14.6 °F 18.0 °F 88% 29.99 in 10.0 mi NNE 4.6 mph - N/A   Overcast
6:53 PM 21.0 °F 13.4 °F 18.0 °F 88% 30.00 in 10.0 mi NE 5.8 mph - N/A   Overcast
7:39 PM 21.0 °F 12.4 °F 17.1 °F 85% 29.92 in 10.0 mi ENE 6.9 mph - N/A   Overcast
7:53 PM 21.0 °F 11.4 °F 16.0 °F 81% 30.01 in 10.0 mi ENE 8.1 mph - N/A   Overcast
8:53 PM 19.9 °F 10.1 °F 16.0 °F 85% 29.99 in 10.0 mi NE 8.1 mph - N/A   Overcast
9:53 PM 19.0 °F 11.1 °F 16.0 °F 88% 29.96 in 10.0 mi NE 5.8 mph - N/A   Overcast
10:53 PM 19.0 °F 10.0 °F 15.1 °F 85% 29.93 in 10.0 mi NE 6.9 mph - N/A   Overcast
11:53 PM 19.0 °F 11.1 °F 14.0 °F 81% 29.94 in 10.0 mi NE 5.8 mph - N/A   Overcast